Location: Cedar Brake
(32.2526°N, 97.8459°W)
Time: 08:01:00
(UTC+00:00)

Meteor 2-11 Rocket - Pass Details

Date: 22 April 2026
Orbit: 940 x 956 km, 82.5° (Epoch: 15 May)

Event Time Altitude Azimuth Distance (km) Brightness Sun altitude
Rises 10:00:29 0° 353° (N) 3,636 7.8 -22.8°
Reaches altitude 10° 10:02:59 10° 353° (N) 2,686 7.1 -22.4°
Maximum altitude 10:09:09 89° 267° (W) 957 4.4 -21.3°
Drops below altitude 10° 10:15:16 10° 176° (S) 2,662 6.5 -20.2°
Enters shadow 10:17:38 - 176° (S) 3,563 7.2 -19.7°
